COSMOS 970 DEB *

Satellite information

Favourite Embed

Satellite Type and Status

DEBRISIN ORBIT

Key statistics

Satellite COSMOS 970 DEB * at a glance.

Uptime

17364

Days in orbit

Revolutions

≈ 14.3

Per day

Orbit

LEO

Low Earth Orbit

Inclination

65.7

Latest

Satellite identification and parameters

Extended collection of information and parameters for COSMOS 970 DEB *.

Object identification

Identified? True

Debris? True

Object name: COSMOS 970 DEB *

International designator: 1977-121BW

Object number (NORAD): 20032

Object ID (CCSDS): 20032

Country: COMMONWEALTH OF INDEPENDENT STATES (CIS)

Current information (Y/N): Y

RCS size: SMALL

Orbital parameters

Period: 100.512 minutes

Inclination: 65.6623 deg

SMA: 7160.99 km

Apoapsis: 1041.842 km

Periapsis: 523.869 km

RAAN: 102.7258 deg

Eccentricy: 0.0361663

Argument of periapsis: 125.0632 deg

Mean anomaly: 22.2742 deg

Mean motion: 14.32659991 rev/day

Mean motion (dot): 0.00008327 rev/day2

B* drag term: 0.001488 1/REarth

Two-line elements (TLE)

Creation date: July 5, 2025, 5:45 p.m.

Reference frame: TEME

Reference center: EARTH

Epoch: July 5, 2025, 4:49 a.m. UTC

TLE line 0: 0 COSMOS 970 DEB *

TLE line 1: 1 20032U 77121BW 25186.20085316 .00008327 00000-0 14880-2 0 9995

TLE line 2: 2 20032 65.6623 102.7258 0361663 125.0632 22.2742 14.32659991605476

Live tracking on map

Real-time ground track for satellite COSMOS 970 DEB *.

In-orbit conjunctions

A list of the most updated potential collisions computed for object COSMOS 970 DEB *.

Target Orbit TCA Probability of collision Miss distance Type
CZ-6A DEB LEO 2024-09-21 12:33:32 0.0001508748 485.0 (m) DEBRIS

Associated space launch

Second generation ASAT satellite

COSMOS 970 DEB * was lifted into orbit during the mission ‘Tsiklon-2 | IS-A 8’, on board a Tsiklon-2 space rocket.

The launch took place on Dec. 21, 1977, 10:35 a.m. from 90.

For more information about the launch, click the button.

Launch to space Tsiklon-2 | IS-A 8
Tsiklon-2 | IS-A 8

Agency: N/A

Status: Launch Successful

Launch date: Dec. 21, 1977, 10:35 a.m. UTC

Rocket: Tsiklon-2

Launch pad: 90

Location: Baikonur Cosmodrome, Republic of Kazakhstan

...

Latest news about this satellite

There are no fresh news available about this satellite. Check back as we update our databases every day.


Newsletter sign-up

Weekly statistics, charts and insights to help you stay on top of the space industry.